Theta_e
328 332 333 335 335 334 335 331 330 330 332 333 333 334 332 328 324 322 322 324 334 331 324 324 323 320 321 322 322 322 322 323 333 336 329 330 329 328 328 332 334 336 338
325 329 331 332 332 332 333 332 332 333 333 332 331 331 330 328 324 323 324 335 332 323 324 325 326 325 321 321 322 323 322 323 326 330 330 331 330 330 331 331 334 333 331
324 325 331 331 331 331 331 331 332 332 332 332 331 330 330 327 325 324 324 334 333 328 325 324 323 321 320 323 320 321 322 323 323 326 330 330 333 329 329 330 331 330 328
322 323 329 330 330 331 331 331 329 329 330 330 329 329 327 325 324 323 323 330 331 329 324 323 320 319 320 320 319 320 321 322 323 324 326 329 333 333 332 327 326 326 326
321 322 323 329 330 330 330 329 328 328 329 328 327 326 325 323 323 323 329 329 329 326 323 321 319 318 319 320 318 319 321 321 322 322 323 325 328 330 334 330 323 322 321
319 321 320 325 329 330 330 329 329 329 328 326 326 325 325 323 321 321 322 327 323 321 319 318 318 316 315 315 314 314 314 315 317 319 320 321 322 323 323 325 331 324 324
316 318 320 321 326 328 329 329 329 329 328 327 333 328 325 323 321 320 317 318 318 315 315 315 314 314 313 312 311 309 309 309 310 311 312 313 315 316 316 311 317 321 320
316 317 319 320 322 325 327 328 328 328 327 326 332 333 333 331 324 322 315 314 314 313 312 312 312 312 310 308 305 304 304 304 304 304 304 305 307 308 307 305 310 314 315
316 316 318 319 320 322 325 327 327 328 327 327 328 328 330 330 329 327 321 312 311 311 310 310 309 307 305 304 303 304 304 305 305 306 305 305 305 306 305 305 306 307 309
316 316 316 318 319 320 320 322 325 327 328 328 328 327 329 330 330 326 322 316 312 309 309 307 306 304 303 303 304 305 306 307 307 307 307 307 307 307 306 306 305 305 305
317 316 316 317 319 319 320 321 319 320 321 331 332 330 328 329 330 327 326 321 317 310 308 306 305 304 303 304 305 306 306 306 306 306 307 307 307 307 306 306 306 306 306
316 317 316 316 317 318 320 321 321 320 326 335 335 331 331 329 329 328 329 327 324 314 308 305 305 304 303 304 306 306 306 306 306 306 306 306 307 307 307 306 306 306 306
316 316 316 316 316 318 317 317 319 320 321 322 322 328 329 335 335 333 329 329 325 317 310 306 305 304 304 305 306 306 306 306 306 306 306 306 306 306 306 306 306 306 306
315 316 317 316 315 316 318 319 318 319 319 319 320 323 329 334 332 334 329 325 327 323 312 307 305 304 304 304 305 306 306 307 307 307 307 307 307 306 305 305 305 305 305
315 316 316 316 317 316 317 318 319 319 321 321 322 322 323 326 337 333 331 325 321 322 315 309 304 304 304 304 305 306 307 307 307 308 308 307 307 306 306 305 305 305 304
314 315 316 316 316 317 317 318 320 321 321 323 325 326 326 325 326 331 328 328 324 321 319 313 306 304 303 303 304 305 305 306 307 307 307 307 307 307 306 305 304 304 304
313 314 315 315 315 315 317 318 321 322 323 324 326 327 328 328 327 326 325 328 326 322 322 319 310 305 303 302 303 304 304 305 305 306 306 306 306 306 306 306 305 304 303
312 312 313 314 315 315 315 321 324 324 324 324 326 327 328 329 329 327 329 328 323 327 323 321 315 307 305 303 302 302 303 303 304 305 305 306 306 306 306 306 305 304 303
310 310 311 312 313 314 315 321 325 325 325 325 325 326 327 326 325 325 325 325 327 326 325 323 320 311 306 305 303 302 301 302 303 304 305 305 305 305 305 306 305 304 303
307 308 309 310 312 314 315 317 322 323 324 324 324 324 324 324 324 324 324 323 324 323 323 323 321 315 310 307 306 303 300 301 301 302 303 304 304 304 304 304 304 303 302
307 307 307 308 309 310 311 312 314 319 321 322 321 321 321 321 322 322 322 322 323 322 320 319 319 316 313 310 308 304 301 300 300 301 301 302 303 303 303 303 303 302 301
305 306 306 306 307 308 309 311 312 313 315 318 319 318 318 318 319 318 318 318 317 317 318 316 315 315 314 311 308 303 299 300 300 300 301 302 302 302 303 303 302 302 301
305 306 306 306 305 305 305 307 308 310 312 314 316 315 314 314 314 315 315 316 316 316 314 314 313 312 312 311 309 304 298 299 300 301 301 301 301 302 302 302 302 302 302
303 304 305 305 305 305 305 306 305 304 305 305 305 306 308 308 309 311 310 311 312 312 312 311 311 309 309 308 307 306 302 299 299 300 301 301 301 301 301 302 302 301 301
301 302 302 302 302 302 304 304 304 304 302 301 302 303 302 302 302 303 305 306 307 308 308 307 307 307 306 306 305 304 303 301 299 298 299 299 300 301 302 302 301 301 301
301 302 302 302 302 302 301 301 301 302 302 302 302 301 300 299 300 300 301 301 301 302 303 305 305 305 304 304 304 302 301 300 299 298 298 298 298 299 300 301 301 302 301
Wind_Speed
12 18 19 20 19 17 17 15 14 12 9 7 5 5 5 6 6 5 3 3 4 4 3 3 4 5 5 5 6 6 6 8 9 8 7 6 5 6 6 7 8 10 10
9 17 20 19 18 16 15 14 13 12 10 8 7 6 6 5 5 4 4 3 3 1 1 2 3 4 4 4 4 5 6 7 8 7 6 6 4 3 3 4 4 4 6
6 13 22 21 19 18 17 15 13 10 9 8 8 8 7 6 5 4 3 4 4 3 2 1 1 2 2 2 3 4 5 6 7 7 5 5 4 1 2 3 2 2 3
5 8 19 22 21 20 18 16 14 12 11 10 10 9 9 8 6 6 6 8 7 6 5 3 1 2 2 2 2 3 4 5 6 5 4 5 4 0 1 5 4 2 1
5 7 13 21 22 22 20 18 16 14 13 13 12 11 10 8 8 8 8 9 8 8 7 5 4 3 3 4 4 5 6 7 7 6 5 5 4 4 2 2 5 4 3
6 7 11 18 22 23 22 20 18 16 15 14 13 12 11 10 10 10 10 11 12 10 8 8 7 6 6 7 7 8 8 10 10 10 9 9 9 8 6 6 1 3 4
4 7 11 15 20 22 22 21 19 18 16 14 13 13 12 12 12 9 11 13 11 9 9 10 8 7 7 7 8 9 9 11 10 11 10 11 11 11 10 9 9 6 5
5 7 10 13 17 21 22 22 21 19 18 16 15 14 12 14 12 10 7 11 11 11 8 8 8 7 7 8 8 7 8 9 8 9 9 10 9 10 10 8 9 9 10
7 8 10 12 15 18 22 22 22 21 20 19 18 16 15 17 15 13 10 9 11 11 10 8 8 7 8 8 8 7 8 7 6 7 7 8 8 9 9 9 9 9 10
11 11 11 13 16 18 20 22 24 24 23 22 20 19 18 19 18 17 13 11 12 12 10 9 8 8 8 9 9 8 8 8 7 7 7 8 8 9 8 9 9 9 10
14 14 15 15 16 18 20 22 23 24 23 24 23 21 22 23 22 21 17 15 13 12 12 10 9 9 10 10 10 9 9 9 8 9 8 9 9 10 9 9 10 10 11
19 16 15 16 17 18 20 23 25 24 25 25 24 22 24 24 25 23 20 19 18 15 14 13 12 11 12 12 11 11 10 10 10 9 9 9 10 11 11 10 10 11 11
17 16 15 14 15 16 19 21 24 27 26 26 25 24 24 25 27 26 25 23 21 19 18 16 14 14 15 14 13 12 12 12 10 10 9 10 10 11 11 11 11 11 11
17 18 19 17 14 15 16 19 22 24 26 27 27 28 26 27 29 28 27 26 24 22 20 20 17 16 17 16 15 15 14 13 11 11 10 10 11 12 12 13 12 11 11
17 18 18 20 20 16 18 18 18 22 24 24 26 28 29 28 30 29 28 27 24 24 22 22 21 20 20 20 19 18 17 16 14 13 12 11 12 12 13 13 13 12 13
11 17 19 17 16 17 17 18 19 18 19 21 22 23 25 28 27 29 29 30 26 24 24 23 23 22 22 22 22 21 20 19 17 15 14 13 13 13 13 13 13 13 11
8 8 14 17 17 15 15 16 17 17 18 20 21 20 21 24 26 29 29 31 30 23 25 25 25 25 25 25 25 24 23 21 20 18 17 15 15 14 14 13 14 14 12
10 10 10 11 12 13 12 14 15 17 17 18 20 21 21 22 25 26 30 33 27 25 25 25 26 28 27 27 27 26 26 25 24 22 21 19 18 16 15 14 14 14 14
7 8 8 9 10 12 11 11 16 16 16 16 17 19 19 21 23 24 25 25 27 26 25 26 27 28 28 29 29 29 29 29 27 26 25 23 21 19 18 17 16 16 16
8 6 3 2 4 6 7 7 10 12 13 14 13 14 15 18 20 23 22 23 25 27 27 28 29 29 30 28 29 31 32 31 30 29 29 27 24 22 21 19 18 17 18
14 12 12 7 4 2 5 6 7 6 7 9 8 11 14 15 16 17 18 20 24 28 27 27 28 30 31 30 30 33 34 34 34 33 33 30 29 27 25 23 20 20 21
26 26 22 20 15 12 8 7 3 2 5 8 8 9 12 14 15 15 16 19 21 25 27 28 28 30 31 32 33 33 29 35 39 38 37 35 33 31 29 27 24 23 23
29 29 28 27 24 21 17 10 5 2 3 5 6 7 10 11 12 13 11 15 20 22 25 26 28 30 31 33 34 30 12 17 23 30 38 40 37 35 33 30 28 26 25
26 24 24 24 23 23 21 18 16 13 10 9 6 5 9 12 13 13 15 16 17 20 23 24 25 28 31 34 34 37 40 36 15 12 18 26 35 38 37 34 32 30 28
22 24 24 22 22 22 20 19 18 17 15 12 8 8 8 7 7 10 14 17 19 20 21 22 23 25 29 33 36 37 38 41 45 40 34 31 29 27 30 34 35 32 30
20 19 19 19 20 19 18 17 16 14 13 13 14 15 17 15 11 10 11 12 14 17 21 25 23 24 27 31 34 36 39 37 36 42 45 48 46 41 37 35 35 33 33
Wind_Direction
173 182 187 186 191 193 189 184 182 182 177 173 170 169 161 153 157 156 141 100 106 110 89 80 92 114 139 147 144 138 133 128 128 121 118 108 102 98 87 92 89 92 86
178 180 192 193 197 200 200 195 189 187 187 190 190 189 187 187 186 171 145 145 203 249 114 95 89 103 116 145 154 148 142 140 141 140 132 124 128 133 123 117 112 99 101
175 185 191 197 200 201 199 197 199 206 211 210 209 207 207 208 205 200 192 187 233 243 238 220 116 123 123 135 146 153 160 163 165 166 155 133 93 190 203 176 172 133 115
186 192 195 202 205 205 207 210 215 220 225 226 222 217 214 213 217 231 229 221 235 245 249 241 237 183 175 177 185 182 185 198 204 180 182 160 136 121 325 213 203 205 197
212 203 204 207 211 212 214 220 226 227 226 226 224 224 227 228 237 231 221 236 244 248 256 251 246 222 216 220 222 216 214 216 223 230 232 215 199 172 161 296 206 214 222
231 219 211 211 215 218 220 223 224 227 228 228 228 228 237 245 245 247 236 232 243 242 246 251 253 248 239 239 235 232 228 233 231 235 238 241 237 246 253 250 181 213 218
245 230 217 216 218 222 224 227 229 229 231 229 224 225 236 249 253 262 237 244 251 253 246 249 248 248 250 246 243 235 233 232 232 238 240 241 248 259 259 267 235 223 219
272 244 229 224 223 226 229 232 234 233 233 232 228 235 240 245 253 252 268 259 256 271 256 246 248 253 249 243 234 231 229 232 233 240 239 241 247 258 268 267 249 240 248
280 257 244 236 230 229 232 234 237 237 236 235 233 237 243 250 259 253 259 272 263 260 252 250 249 244 240 231 225 222 230 234 238 243 246 253 257 259 262 264 260 257 256
291 275 256 245 239 235 232 233 236 237 236 235 235 236 238 248 251 255 257 268 275 268 258 252 247 241 228 220 222 226 238 245 251 253 250 255 263 266 265 261 260 261 264
294 293 278 256 248 244 240 241 242 237 236 231 230 234 234 242 247 253 255 260 269 267 261 251 241 232 225 227 230 235 241 252 255 256 261 266 269 269 267 265 263 261 259
288 295 296 275 261 254 247 244 244 237 231 231 233 230 235 242 248 251 255 258 264 263 256 248 243 234 230 233 237 241 248 257 256 261 265 268 272 273 273 272 268 264 262
291 281 284 287 272 261 257 252 248 242 236 237 237 236 234 237 239 250 252 255 261 266 261 252 244 237 236 240 242 246 249 252 259 266 272 274 276 274 275 273 271 270 267
279 271 263 272 279 274 265 260 252 247 245 243 243 243 234 235 239 244 252 254 258 263 260 256 249 241 241 241 243 247 252 259 263 268 272 278 281 281 284 284 282 279 273
274 271 271 257 258 280 274 271 264 253 248 246 245 244 245 242 239 245 253 260 259 260 259 254 248 243 242 243 244 248 250 253 257 263 270 274 277 278 280 284 285 283 279
274 262 259 256 255 259 273 276 276 275 264 253 248 249 252 256 248 246 249 259 264 260 263 259 253 245 245 244 244 245 247 249 251 254 258 263 268 272 275 276 279 279 277
302 291 272 257 246 249 262 272 272 278 280 271 264 260 259 259 260 261 254 255 262 268 268 262 255 248 244 243 245 245 247 249 251 252 255 258 263 267 271 273 272 271 265
291 282 276 264 244 239 242 250 259 265 275 280 274 270 266 258 255 258 256 254 256 267 267 265 261 256 250 247 247 248 248 248 249 251 254 257 260 264 268 270 270 264 252
314 294 271 264 253 239 237 237 247 251 258 264 270 272 268 264 260 261 261 261 252 258 266 267 264 259 256 253 252 249 247 247 248 251 254 257 259 262 265 267 267 262 258
49 42 49 188 227 228 209 221 239 246 249 250 255 262 265 265 266 269 266 264 263 258 262 266 266 261 258 256 256 255 251 248 247 249 251 252 255 256 258 260 261 260 256
67 65 63 70 98 218 241 228 230 242 236 239 261 263 265 268 269 272 274 274 273 266 268 274 272 266 263 260 257 254 253 252 250 249 250 252 253 254 255 256 256 254 251
66 64 59 54 51 53 56 58 39 288 259 246 234 254 264 267 269 273 279 277 276 277 276 272 271 271 268 262 256 254 256 255 253 252 252 252 253 252 253 255 255 255 253
65 60 58 57 55 52 47 43 34 313 277 260 256 255 283 286 278 271 269 274 272 274 277 275 273 274 274 269 263 250 251 248 261 256 252 252 251 252 254 253 255 255 254
58 55 52 47 48 47 45 44 44 45 42 36 10 324 284 280 277 272 273 263 259 270 276 279 277 271 272 271 268 261 253 255 278 286 268 258 252 251 252 253 254 253 254
58 49 43 38 37 37 30 31 32 32 31 23 3 339 326 321 300 282 275 272 263 265 269 275 275 274 271 272 269 269 267 261 258 263 273 272 272 269 262 258 255 253 253
55 46 39 27 26 24 19 18 18 23 24 16 19 17 14 4 344 322 308 299 289 282 273 269 271 267 267 269 272 270 267 263 261 263 265 269 274 274 273 267 259 255 251